Regional Weather Roundup
Issued by NWS

Home | Current Version | Previous Version | Text Only | Print | Product List | Glossary Off
Versions: 1 2 3 4 5 6 7 8 9 10 11 12 13 14 15 16 17 18 19 20 21 22 23 24 25 26 27 28 29 30 31 32 33 34 35 36 37 38 39 40 41 42 43 44 45 46 47 48 49 50

951
ASUS45 KSLC 080310
RWRUT

UTAH REGIONAL WEATHER ROUNDUP
NATIONAL WEATHER SERVICE SALT LAKE CITY UT
800 PM MST WED DEC 07 2016

UTZ001>011-023>025-080400-

NORTHERN UTAH

CITY           SKY/WX    TMP DP  RH WIND       PRES   REMARKS
BRIGHAM CITY     N/A     20  11  68 CALM      30.34S
HILL AFB       CLEAR     16   8  68 E10       30.30R WCI   4
LOGAN          CLEAR     18   7  62 S7        30.33R WCI   9
OGDEN          CLEAR     18  10  71 S7        30.31R WCI   9
SALT LAKE CITY CLEAR     22  11  62 SE5       30.32S WCI  16
TOOELE VALLEY  CLEAR     18  14  86 S7        30.32F WCI   8
WENDOVER       PTCLDY    19   3  49 CALM      30.31S
HEBER CITY     CLEAR     10   3  72 SE3       30.25R
WEST JORDAN    CLEAR     18  15  87 SW3       30.32R

$$

UTZ011>015-024>027-080400-

CENTRAL/NORTHEAST UTAH

CITY           SKY/WX    TMP DP  RH WIND       PRES   REMARKS
PROVO AIRPORT  CLEAR     21  15  78 NW8       30.32R WCI  11
MOAB/CANYONLAN CLEAR     23  -1  35 W7        30.24R WCI  15
DELTA          CLEAR     18   5  57 NE6       30.28R WCI   9
PRICE          PTCLDY    16  -5  39 N9        30.21S WCI   4
ROOSEVELT      CLEAR     23   7  50 E7        30.30R WCI  15
VERNAL         CLEAR     18   3  52 CALM      30.28R

$$

UTZ013>016-019>022-027-080400-

SOUTHERN UTAH

CITY           SKY/WX    TMP DP  RH WIND       PRES   REMARKS
BRYCE CANYON   CLEAR      9   1  70 N6        30.16R WCI  -1
CEDAR CITY     CLEAR     17   7  64 CALM      30.21R
MILFORD        CLEAR     19   6  57 N9        30.23S WCI   8
ST GEORGE      CLEAR     39   9  28 NE13      30.23R WCI  32
HANKSVILLE     CLEAR     27   3  36 CALM      30.28R
BLANDING       CLEAR     20   1  44 N6        30.27R WCI  12

$$

REGIONAL REPORTS     COLORADO/ARIZONA

CITY           SKY/WX    TMP DP  RH WIND       PRES   REMARKS
CRAIG, CO      CLOUDY    -2  -8  76 SE3       30.29R
GRAND JUNCTION CLEAR     24   8  50 NE10      30.26R WCI  14
RIFLE, CO      CLEAR     14   6  70 CALM      30.28R
MONTROSE, CO   CLOUDY    15   9  76 SE8       30.27R WCI   4
CORTEZ, CO     CLOUDY    19   7  59 N6        30.21R WCI  11
COLORADO CITY    N/A     19  10  68 E5        30.20R WCI  13
PAGE, AZ       CLEAR     35   2  24 E5        30.20R WCI  31
GRAND CANYON   PTCLDY    22  18  85 CALM      30.15R
KINGMAN, AZ    PTCLDY    37   5  26 E10       30.15R WCI  30
FLAGSTAFF, AZ  CLEAR     26  16  65 CALM      30.13R

$$

REGIONAL REPORTS    NEVADA/IDAHO/WYOMING

CITY           SKY/WX    TMP DP  RH WIND       PRES   REMARKS
LAS VEGAS, NV  MOCLDY    48   4  16 CALM      30.19R
ELY, NY        PTCLDY    12   0  58 S9        30.16S WCI   0
ELKO, NV       MOCLDY    20   5  52 E8        30.20R WCI  10
POCATELLO, ID  CLEAR      2  -1  88 CALM      30.35R
BURLEY, ID     CLEAR     10   7  87 E6        30.32S WCI   0
FORT BRIDGER,    N/A      7   0  73 SE5       30.23R WCI  -2
EVANSTON, WY   CLOUDY     8   0  69 N6        30.19R WCI  -2
ROCK SPRINGS,  CLOUDY     2  -4  76 S7        30.22R WCI -11
KEMMERER, WY     N/A      0  -6  78 N8        30.18  WCI -15

$$




USA.gov is the U.S. government's official web portal to all federal, state and local government web resources and services.